フルス彗星

C/2023 T3 ( Fuls )

English version
Home page
Updated on January 31, 2024

---------------------------------------------------------------------

・ プロフィール

発見日 2023年10月15日
発見光度 18.5等
発見者 David Carson Fuls (Mt. Lemmon Survey)

・ 写真集

・ 軌道要素

Epoch 2023 Sept. 13.0 TT = JDT 2460200.5
T 2025 Jan. 25.48515 TT                                 Rudenko
q   3.5482913            (2000.0)            P               Q
z  +0.0015449      Peri.  302.85657     -0.90306235     +0.09912531
 +/-0.0000339      Node   246.00373     -0.02317811     -0.98283340
e   0.9945181      Incl.   27.22276     -0.42888364     -0.15560426
>From 207 observations 2023 Oct. 15-2024 Jan. 26, mean residual 0".5.

・ 星図

・ 光度変化

        m1 = 7.7 + 5 logΔ + 10.0 log r

---------------------------------------------------------------------

軌道要素はM.P.E.C. 2024-B140に掲載されたものです。
星図はステラナビゲータ Ver.11 (アストロアーツ) で作成したものです。
光度グラフはComet for Windowsで作成したものです。

---------------------------------------------------------------------

Copyright(C) Seiichi Yoshida (comet@aerith.net). All rights reserved.